Weather History for KBML - December, 2001

Change the Weather History Date:

Tuesday, December 25, 2001

  Actual Average Record
Temperature  
Mean Temperature 22 °F -  
Max Temperature 30 °F 25 °F 48 °F (2008)
Min Temperature 14 °F 6 °F -7 °F (2010)
Degree Days  
Heating Degree Days 43    
Moisture  
Dew Point 20 °F    
Average Humidity 87    
Maximum Humidity 100    
Minimum Humidity 69    
Precipitation  
Precipitation 0.00 in - - ()
Sea Level Pressure  
Sea Level Pressure 29.88 in    
Wind  
Wind Speed 2 mph (NW)    
Max Wind Speed 6 mph    
Max Gust Speed -    
Visibility 9 miles    
Events      
Averages and records for this station are not official NWS values.
T = Trace of Precipitation, MM = Missing Value Source: NWS Daily Summary

Daily Weather History Graph

Daily Weather History Graph

Search for Another Location

Airport or City:

Trip Planner

Search our weather history database for the weather conditions in past years. The results will help you decide how hot, cold, wet, or windy it might be!

Date:

Astronomy

Dec. 25, 2001 Rise Set
Actual Time 7:20 AM EST 4:09 PM EST
Civil Twilight 6:46 AM EST 4:43 PM EST
Nautical Twilight 6:09 AM EST 5:20 PM EST
Astronomical Twilight 5:34 AM EST 5:55 PM EST
Moon 1:10 PM EST (12/25) 1:57 AM EST (12/25)
Length of Visible Light 9h 56m
Length of Day
8h 49m
Waxing Gibbous, 76% of the Moon is Illuminated
Dec 25
Waxing Gibbous
Dec 30
Full
Jan 5
Last Quarter
Jan 13
New
Jan 21
First Quarter

Hourly Weather History & Observations

Time (EST) Temp. Windchill Dew Point Humidity Pressure Visibility Wind Dir Wind Speed Gust Speed Precip Events Conditions
12:52 AM 27.0 °F 23.0 °F 24.1 °F 89% 29.73 in 10.0 mi WNW 3.5 mph - N/A   Scattered Clouds
1:52 AM 24.1 °F 19.7 °F 21.0 °F 88% 29.77 in 10.0 mi North 3.5 mph - N/A   Partly Cloudy
2:06 AM 24.8 °F 20.5 °F 21.2 °F 86% 29.73 in 10.0 mi NNE 3.5 mph - N/A   Mostly Cloudy
2:35 AM 21.2 °F - 19.4 °F 93% 29.74 in 10.0 mi Calm Calm - N/A   Scattered Clouds
2:52 AM 19.0 °F - 18.0 °F 96% 29.79 in 7.0 mi Calm Calm - N/A   Clear
3:52 AM 16.0 °F - 12.0 °F 84% 29.81 in 4.0 mi Calm Calm - N/A   Mostly Cloudy
3:56 AM 15.8 °F - 12.2 °F 86% 29.74 in 1.8 mi Calm Calm - N/A   Mostly Cloudy
4:06 AM 17.6 °F - 15.8 °F 93% 29.75 in 4.0 mi Calm Calm - N/A   Mostly Cloudy
4:52 AM 17.1 °F - 14.0 °F 88% 29.81 in 8.0 mi Calm Calm - N/A   Overcast
5:52 AM 14.0 °F - 12.0 °F 92% 29.84 in 8.0 mi Calm Calm - N/A   Partly Cloudy
6:52 AM 17.1 °F - 16.0 °F 96% 29.86 in 10.0 mi Calm Calm - N/A   Overcast
7:52 AM 18.0 °F - 17.1 °F 96% 29.89 in 8.0 mi Calm Calm - N/A   Overcast
8:52 AM 21.0 °F - 21.0 °F 100% 29.91 in 6.0 mi Calm Calm - N/A   Overcast
9:52 AM 23.0 °F - 19.9 °F 88% 29.91 in 6.0 mi Calm Calm - N/A   Partly Cloudy
10:52 AM 28.0 °F 24.2 °F 21.9 °F 78% 29.91 in 10.0 mi Variable 3.5 mph - N/A   Overcast
11:52 AM 28.9 °F 22.8 °F 19.9 °F 69% 29.90 in 10.0 mi Variable 5.8 mph - N/A   Partly Cloudy
12:52 PM 28.9 °F - 21.0 °F 72% 29.90 in 10.0 mi Calm Calm - N/A   Mostly Cloudy
1:52 PM 28.9 °F 23.9 °F 21.0 °F 72% 29.91 in 10.0 mi NW 4.6 mph - N/A   Partly Cloudy
2:28 PM 28.4 °F 23.3 °F 21.2 °F 74% 29.87 in 10.0 mi Variable 4.6 mph - N/A   Overcast
2:40 PM 28.4 °F 24.6 °F 21.2 °F 74% 29.88 in 8.0 mi Variable 3.5 mph - 0.00 in   Overcast
2:52 PM 28.9 °F 25.2 °F 21.9 °F 75% 29.94 in 10.0 mi West 3.5 mph - 0.00 in   Overcast
3:19 PM 30.2 °F - 23.0 °F 75% 29.89 in 10.0 mi Calm Calm - N/A   Overcast
3:41 PM 28.4 °F 24.6 °F 21.2 °F 74% 29.89 in 10.0 mi WNW 3.5 mph - N/A   Scattered Clouds
3:52 PM 28.0 °F 24.2 °F 21.0 °F 75% 29.95 in 10.0 mi West 3.5 mph - N/A   Mostly Cloudy
4:52 PM 25.0 °F - 23.0 °F 92% 29.97 in 10.0 mi Calm Calm - N/A   Overcast
5:52 PM 25.0 °F - 23.0 °F 92% 29.98 in 10.0 mi Calm Calm - N/A   Overcast
6:52 PM 25.0 °F - 24.1 °F 96% 30.00 in 10.0 mi Calm Calm - N/A   Overcast
7:52 PM 25.0 °F - 24.1 °F 96% 30.00 in 10.0 mi Calm Calm - N/A   Overcast
8:52 PM 24.1 °F - 23.0 °F 96% 30.01 in 10.0 mi Calm Calm - N/A   Overcast
9:52 PM 23.0 °F - 23.0 °F 100% 29.99 in 10.0 mi Calm Calm - N/A   Overcast
10:52 PM 23.0 °F - 21.9 °F 96% 29.99 in 9.0 mi Calm Calm - N/A   Overcast
11:52 PM 24.1 °F - 21.9 °F 91% 29.99 in 10.0 mi Calm Calm - N/A   Overcast